Location: Bermeries
(50.2863°N, 3.7551°E)
Time: 11:20:37
(UTC+00:00)

Cosmos 1814 Rocket - Pass Details

Date: 23 May 2024
Orbit: 743 x 784 km, 74.1° (Epoch: 14 June)

Event Time Altitude Azimuth Distance (km) Brightness Sun altitude
Rises 02:34:04 0° 331° (NNW) 3,221 7.5 -9.5°
Reaches altitude 10° 02:36:30 10° 326° (NW) 2,298 6.7 -9.3°
Maximum altitude 02:41:26 45° 255° (WSW) 1,036 4.3 -8.7°
Drops below altitude 10° 02:46:24 10° 183° (S) 2,308 6.0 -8.2°
Sets 02:48:52 0° 177° (S) 3,237 6.8 -7.9°
